Location: B?lite?ti
(46.2833°N, 22.7333°E)
Time: 04:10:12
(UTC+00:00)

CZ-4 R/B - Pass Details

Date: 24 January 2021
Orbit: 530 x 599 km, 97.7° (Epoch: 26 February)

Event Time Altitude Azimuth Distance (km) Brightness Sun altitude
Rises 16:16:18 0° 140° (SE) 2,784 4.7 -9.5°
Reaches altitude 10° 16:18:38 10° 130° (SE) 1,879 3.7 -9.9°
Maximum altitude 16:22:13 31° 69° (ENE) 1,018 2.1 -10.5°
Drops below altitude 10° 16:25:45 10° 7° (N) 1,855 3.8 -11.0°
Sets 16:28:02 0° 357° (N) 2,743 4.8 -11.4°
